Location: Unspecified
(0.0000°N, 0.0000°E)
Time: 03:08:17
(UTC+00:00)

Vanguard 1 - Pass Details

Date: 14 December 2023
Orbit: 653 x 3826 km, 34.3° (Epoch: 22 February)

Event Time Altitude Azimuth Distance (km) Brightness Sun altitude
Rises 03:00:48 0° 273° (W) 7,662 - -39.2°
Reaches altitude 10° 03:08:40 10° 259° (W) 6,189 - -37.5°
Exits shadow 03:15:05 18° 241° (WSW) 5,062 13.4 -36.1°
Maximum altitude 03:20:37 21° 217° (SW) 4,328 13.2 -34.8°
Drops below altitude 10° 03:29:07 10° 173° (S) 4,229 13.6 -33.0°
Sets 03:33:07 0° 156° (SSE) 4,735 14.3 -32.1°
